Regional Weather Roundup
Issued by NWS

Current Version | Previous Version | Text Only | Print | Product List | Glossary On
Versions: 1 2 3 4 5 6 7 8 9 10 11 12 13 14 15 16 17 18 19 20 21 22 23 24 25 26 27 28 29 30 31 32 33 34 35 36 37 38 39 40 41 42 43 44 45 46 47 48 49 50
000
ASUS44 KOUN 080300
RWROK

WEATHER ROUNDUP FOR OKLAHOMA
NATIONAL WEATHER SERVICE NORMAN OK
900 PM CST SUN FEB 07 2016

NOTE: "FAIR" INDICATES FEW OR NO CLOUDS BELOW 12,000 FEET WITH NO
      SIGNIFICANT WEATHER AND/OR OBSTRUCTIONS TO VISIBILITY.

OKZ001>007-009>012-014-015-017-080400-
NORTHWEST OKLAHOMA AND THE PANHANDLE

CITY           SKY/WX    TMP DP  RH WIND       PRES   REMARKS
GAGE           CLOUDY    39  16  39 NW14      30.33S WCI  31
GUYMON         CLEAR     30  14  51 NW10      30.39R WCI  21
ENID/WOODRING  MOCLDY    46  18  31 N17G26    30.24R
$$

OKZ016-021>023-033>039-044-045-080400-
SOUTHWEST OKLAHOMA

CITY           SKY/WX    TMP DP  RH WIND       PRES   REMARKS
LAWTON/REGL    CLEAR     49  25  39 N16       30.29R
LAWTON/FT SILL CLEAR     48  26  42 N18       30.28R
FREDERICK      CLEAR     47  27  45 N18       30.27R
CLINTON        CLEAR     42  13  30 NW12      30.34R
HOBART         CLEAR     45  20  36 N21       30.34R
ALTUS AFB      CLEAR     49  12  22 N23G33    30.32R
$$

OKZ018>020-024>031-080400-
CENTRAL OKLAHOMA

CITY           SKY/WX    TMP DP  RH WIND       PRES   REMARKS
OKLAHOMA CITY  PTCLDY    46  22  38 NW20G25   30.24R
OKC/WILEY POST PTCLDY    45  19  35 NW14      30.26R
STILLWATER     CLOUDY    46  19  34 NW13      30.22R
GUTHRIE        PTCLDY    47  16  29 NW14G22   30.24R
$$

OKZ008-013-054>072-080400-
NORTHEAST OKLAHOMA

CITY           SKY/WX    TMP DP  RH WIND       PRES   REMARKS
TULSA          MOCLDY    49  24  37 NW20G28   30.15R
TULSA/JONES    PTCLDY    50  21  32 NW14G22   30.18R
PONCA CITY     PTCLDY    42  21  43 NW10      30.21R
BARTLESVILLE   CLEAR     45  19  35 VRB6      30.17R
MUSKOGEE       PTCLDY    48  25  40 NW13      30.15S
$$

OKZ032-040>043-046>053-073>077-080400-
SOUTH CENTRAL/SOUTHEAST OKLAHOMA

CITY           SKY/WX    TMP DP  RH WIND       PRES   REMARKS
MCALESTER      PTCLDY    48  25  40 NW6       30.17R
$$




USA.gov is the U.S. government's official web portal to all federal, state and local government web resources and services.